EDT,Max TemperatureF,Mean TemperatureF,Min TemperatureF,Max Dew PointF,MeanDew PointF,Min DewpointF,Max Humidity, Mean Humidity, Min Humidity, Max Sea Level PressureIn, Mean Sea Level PressureIn, Min Sea Level PressureIn, Max VisibilityMiles, Mean VisibilityMiles, Min VisibilityMiles, Max Wind SpeedMPH, Mean Wind SpeedMPH, Max Gust SpeedMPH,PrecipitationIn, CloudCover, Events, WindDirDegrees
2012-8-1,93,83,73,75,74,72,100,68,49,29.96,29.91,29.87,10,10,7,9,5,,0.00,2,,270
2012-8-2,95,84,73,79,73,70,100,84,49,29.97,29.93,29.89,10,9,5,14,4,16,0.00,0,,223
2012-8-3,93,81,69,77,72,70,100,83,49,30.06,29.99,29.93,10,9,0,10,3,17,0.00,2,,160
2012-8-4,91,80,69,75,72,70,100,81,55,30.13,30.08,30.02,10,10,5,15,3,28,0.00,1,,97
2012-8-5,77,75,73,73,73,72,100,95,83,30.12,30.08,30.04,10,9,5,16,8,23,0.00,5,,87
2012-8-6,89,81,73,79,75,73,100,86,66,30.12,30.05,29.99,10,8,0,15,5,30,0.00,3,,119
2012-8-7,86,80,73,77,74,73,100,89,70,30.03,30.01,29.98,10,10,2,8,2,,0.00,3,,196
2012-8-8,87,80,73,77,74,72,100,94,66,30.03,29.99,29.96,10,9,1,13,2,,0.00,4,,214
2012-8-9,91,82,73,75,74,72,100,89,59,30.01,29.96,29.88,10,9,1,17,2,28,0.00,2,,218
2012-8-10,84,78,71,75,73,70,100,89,66,29.98,29.93,29.90,10,9,1,10,5,17,0.00,1,,218
2012-8-11,89,79,69,77,72,70,100,81,58,29.97,29.93,29.88,10,10,2,17,4,31,0.00,1,,219
2012-8-12,91,81,71,75,72,68,100,78,46,30.02,29.98,29.94,10,10,7,12,4,,0.00,3,,288
2012-8-13,91,81,71,75,69,63,100,71,40,30.06,30.01,29.97,10,9,5,12,2,16,0.00,3,,272
2012-8-14,91,80,69,75,71,66,100,78,55,30.03,29.99,29.92,10,10,5,14,3,18,0.00,1,,245
2012-8-15,89,81,73,77,73,72,100,89,62,30.02,29.98,29.95,10,10,3,24,4,32,0.00,1,,233
2012-8-16,91,82,73,79,73,66,100,84,59,30.05,30.01,29.94,10,8,1,18,4,34,0.00,3,,241
2012-8-17,87,81,75,75,74,72,100,89,66,30.01,29.95,29.89,10,10,5,10,3,,0.00,1,,226
2012-8-18,89,80,71,75,72,70,100,81,55,29.95,29.90,29.85,10,10,7,10,3,,0.00,1,,260
2012-8-19,87,80,73,75,74,72,100,86,62,29.94,29.90,29.85,10,9,5,13,5,18,0.00,2,,231
2012-8-20,80,76,71,75,73,72,100,95,83,29.99,29.94,29.91,10,10,7,9,2,,0.00,3,,229
2012-8-21,80,76,71,75,72,70,100,92,74,30.03,30.00,29.95,10,10,0,10,1,17,0.00,5,,205
2012-8-22,86,78,71,73,72,70,100,92,66,30.08,30.04,30.01,10,8,1,8,2,,0.00,5,,180
2012-8-23,84,76,68,73,71,68,100,93,70,30.11,30.07,30.02,10,8,3,13,2,20,0.00,2,,261
2012-8-24,87,76,66,72,69,66,100,84,55,30.11,30.07,30.01,10,8,0,8,2,,0.00,3,,57
2012-8-25,87,76,66,72,67,63,100,75,48,30.12,30.09,30.06,10,9,2,13,3,18,0.00,1,,78
2012-8-26,87,76,64,72,66,64,100,79,49,30.12,30.07,30.01,10,9,5,17,4,24,0.00,0,,61
2012-8-27,82,78,73,79,74,70,100,91,83,30.00,29.96,29.91,10,10,0,14,7,23,0.00,6,,74
2012-8-28,93,83,73,75,74,72,100,82,52,29.98,29.93,29.88,10,9,7,21,6,24,0.00,4,,134
2012-8-29,89,81,73,75,73,72,100,88,59,30.00,29.96,29.92,10,10,5,14,4,28,0.00,2,,173
2012-8-30,91,82,73,77,74,72,100,89,59,30.15,30.06,29.98,10,9,0,16,3,25,0.00,5,,116
2012-8-31,91,82,73,79,75,72,100,84,52,30.23,30.17,30.13,10,7,0,10,3,,0.00,4,,94